Location: McFarlands Corners
(41.4117°N, 81.3382°W)
Time: 16:18:27
(UTC+00:00)

Transit 2A - Pass Details

Date: 25 February 2026
Orbit: 590 x 954 km, 66.7° (Epoch: 7 March)

Event Time Altitude Azimuth Distance (km) Brightness Sun altitude
Rises 02:44:26 0° 314° (NW) 3,479 10.2 -39.9°
Reaches altitude 10° 02:47:53 10° 295° (WNW) 2,467 9.3 -40.5°
Enters shadow 02:50:36 16° 267° (W) 1,995 8.6 -41.0°
